FW9488 Weather Reports


Display with metric or nautical units.
time (UTC)temp
F
wind
direction
speed
MPH
gust
MPH
rain 1hr
in
rain 24hr
in
rain mn
in
humidity
%
barometer
mb
20260506123049 47 0 0.0 2.0 0.00 0.00 0.00 52 1015.5
20260506121545 47 0 0.0 0.0 0.00 0.00 0.00 52 1015.2
20260506120050 48 0 0.0 0.0 0.00 0.00 0.00 51 1015.2
20260506114553 48 0 0.0 1.0 0.00 0.00 0.00 51 1015.3
20260506113049 48 0 0.0 0.0 0.00 0.00 0.00 49 1015.1
20260506111547 49 0 0.0 0.0 0.00 0.00 0.00 47 1014.9
20260506104549 50 0 0.0 0.0 0.00 0.00 0.00 45 1014.4
20260506103049 51 0 0.0 1.0 0.00 0.00 0.00 42 1014.4
20260506101549 53 360 0.0 4.0 0.00 0.00 0.00 40 1014.3
20260506100049 56 360 1.0 4.0 0.00 0.00 0.00 44 1014.0
20260506094619 54 360 2.0 6.0 0.00 0.00 0.00 47 1014.0
20260506093053 52 0 0.0 2.0 0.00 0.00 0.00 45 1013.9
20260506091552 53 0 0.0 1.0 0.00 0.00 0.00 43 1013.9
20260506090052 54 360 1.0 3.0 0.00 0.00 0.00 42 1013.7
20260506084551 53 360 1.0 3.0 0.00 0.00 0.00 41 1013.8
20260506083105 53 360 1.0 4.0 0.00 0.00 0.00 41 1013.5
20260506081551 54 360 1.0 3.0 0.00 0.00 0.00 39 1013.6
20260506073050 54 0 0.0 0.0 0.00 0.00 0.00 38 1013.4
20260506071555 55 0 0.0 2.0 0.00 0.00 0.00 37 1013.4
20260506061550 60 0 0.0 1.0 0.00 0.00 0.00 35 1012.7
20260506060109 60 86 1.0 4.0 0.00 0.00 0.00 34 1012.8
20260506044605 60 0 0.0 0.0 0.00 0.00 0.00 36 1012.2
20260506043047 61 0 0.0 0.0 0.00 0.00 0.00 35 1012.0
20260506041555 62 0 0.0 2.0 0.00 0.00 0.00 35 1011.8
20260506040052 62 0 0.0 1.0 0.00 0.00 0.00 34 1011.5
20260506034549 63 0 0.0 0.0 0.00 0.00 0.00 33 1011.3
20260506033052 65 0 0.0 2.0 0.00 0.00 0.00 31 1011.0
20260506031557 66 0 0.0 2.0 0.00 0.00 0.00 31 1010.8
20260506030052 67 0 0.0 2.0 0.00 0.00 0.00 30 1010.4
20260506024559 68 0 0.0 1.0 0.00 0.00 0.00 30 1010.3
20260506023100 68 0 1.0 4.0 0.00 0.00 0.00 29 1010.0
20260506021556 69 174 2.0 7.0 0.00 0.00 0.00 29 1009.9
20260506020053 70 153 3.0 7.0 0.00 0.00 0.00 29 1009.7
20260506014558 71 212 4.0 8.0 0.00 0.00 0.00 28 1009.6
20260506013046 71 235 2.0 9.0 0.00 0.00 0.00 28 1009.5
20260506011549 72 192 3.0 8.0 0.00 0.00 0.00 28 1009.5
20260506010057 71 237 3.0 8.0 0.00 0.00 0.00 28 1009.5
20260506004553 71 241 3.0 8.0 0.00 0.00 0.00 28 1009.4
20260506003050 72 214 5.0 11.0 0.00 0.00 0.00 28 1009.4
20260506001551 72 217 4.0 9.0 0.00 0.00 0.00 29 1009.5
20260506000053 71 186 8.0 14.0 0.00 0.00 0.00 29 1009.3
20260505234554 71 293 6.0 12.0 0.00 0.00 0.00 29 1009.2
20260505233051 72 339 3.0 10.0 0.00 0.00 0.00 29 1009.2
20260505231600 72 239 4.0 11.0 0.00 0.00 0.00 30 1009.4
20260505230059 72 253 2.0 14.0 0.00 0.00 0.00 30 1009.6
20260505224553 71 227 5.0 10.0 0.00 0.00 0.00 31 1009.6
20260505223053 70 148 5.0 9.0 0.00 0.00 0.00 30 1009.7
20260505221557 71 153 4.0 8.0 0.00 0.00 0.00 31 1009.9
20260505220056 71 319 4.0 9.0 0.00 0.00 0.00 30 1010.0
20260505214556 70 228 6.0 11.0 0.00 0.00 0.00 31 1010.4
20260505213105 71 212 4.0 11.0 0.00 0.00 0.00 30 1010.4
20260505211552 69 217 3.0 8.0 0.00 0.00 0.00 32 1010.6
20260505210051 68 281 4.0 12.0 0.00 0.00 0.00 32 1010.7
20260505204550 68 57 5.0 10.0 0.00 0.00 0.00 33 1010.7
20260505203046 68 30 1.0 11.0 0.00 0.00 0.00 33 1010.8
20260505201550 68 227 2.0 10.0 0.00 0.00 0.00 34 1010.9
20260505200052 68 277 2.0 19.0 0.00 0.00 0.00 34 1011.0
20260505194551 68 10 6.0 19.0 0.00 0.00 0.00 34 1010.9
20260505193052 65 5 2.0 8.0 0.00 0.00 0.00 36 1011.2
20260505191608 66 84 3.0 7.0 0.00 0.00 0.00 32 1011.3
20260505190052 65 246 0.0 7.0 0.00 0.00 0.00 35 1011.5
20260505184551 63 223 2.0 9.0 0.00 0.00 0.00 39 1011.6
20260505183051 62 266 2.0 8.0 0.00 0.00 0.00 40 1011.7
20260505181552 62 249 4.0 12.0 0.00 0.00 0.00 40 1011.8
20260505174606 61 192 5.0 8.0 0.00 0.00 0.00 44 1011.7
20260505173052 61 223 2.0 11.0 0.00 0.00 0.00 45 1011.7
20260505171552 61 140 1.0 6.0 0.00 0.00 0.00 45 1011.7
20260505170051 60 298 3.0 6.0 0.00 0.00 0.00 46 1011.8
20260505164551 59 273 3.0 8.0 0.00 0.00 0.00 47 1011.7
20260505163049 59 239 4.0 11.0 0.00 0.00 0.00 47 1011.5
20260505161553 59 212 3.0 10.0 0.00 0.00 0.00 47 1011.4
20260505153049 56 133 2.0 7.0 0.00 0.00 0.00 52 1011.4
20260505151549 57 111 3.0 10.0 0.00 0.00 0.00 52 1011.3
20260505124555 50 360 3.0 8.0 0.00 0.00 0.00 58 1009.8